Location: Copeville
(33.0796°N, 96.4155°W)
Time: 07:00:18
(UTC+00:00)

O/OREOS (USA 219) - Visible Passes

Search period start: 01 April 2023 00:00
Search period end: 11 April 2023 00:00
Orbit: 621 x 646 km, 72.0° (Epoch: 22 May)

Date Brightness Start Highest point End Pass type
(mag) Time Alt. Az. Time Alt. Az. Time Alt. Az.
01 Apr ? 10:20:10 39° SSE 10:21:39 59° ESE 10:26:09 10° NNE visible
02 Apr ? 09:05:03 11° E 09:05:03 11° E 09:05:48 10° E visible
02 Apr ? 10:42:32 42° WSW 10:43:40 54° WNW 10:48:10 10° N visible
03 Apr ? 09:27:18 25° E 09:27:18 25° E 09:30:22 10° NE visible
03 Apr ? 11:04:47 21° W 11:05:52 23° WNW 11:09:31 10° N visible
04 Apr ? 09:49:27 50° NE 09:49:27 50° NE 09:52:59 10° NNE visible
04 Apr ? 11:28:01 10° WNW 11:28:16 10° WNW 11:28:32 10° NW visible
05 Apr ? 10:11:31 40° NNW 10:11:31 40° NNW 10:14:55 10° N visible
06 Apr ? 08:56:02 17° NE 08:56:02 17° NE 08:57:19 10° NE visible
06 Apr ? 10:33:30 20° NW 10:33:30 20° NW 10:36:09 10° NNW visible
07 Apr ? 09:17:57 24° NNE 09:17:57 24° NNE 09:19:49 10° NNE visible
08 Apr ? 09:39:49 22° N 09:39:49 22° N 09:41:39 10° N visible
09 Apr ? 08:24:11 10° NE 08:24:11 10° NE 08:24:14 10° NE visible
09 Apr ? 10:01:38 14° NNW 10:01:38 14° NNW 10:02:45 10° NNW visible
10 Apr ? 08:45:57 14° NNE 08:45:57 14° NNE 08:46:37 10° NNE visible
